Regional Weather Roundup
Issued by NWS Kansas City/Pleasant Hill, MO

Home | Current Version | Previous Version | Graphics & Text | Print | Product List | Glossary Off
Versions: 1 2 3 4 5 6 7 8 9 10 11 12 13 14 15 16 17 18 19 20 21 22 23 24 25 26 27

000
ASUS43 KEAX 200710
RWREAX

WEATHER ROUNDUP FOR EASTERN KANSAS AND NORTHWEST MISSOURI
NATIONAL WEATHER SERVICE KANSAS CITY/PLEASANT HILL MO
200 AM CDT FRI APR 20 2018

KSZ040-057-103>105-MOZ028-029-037-043-200800-
...KANSAS CITY METROPOLITAN AREA...

CITY           SKY/WX    TMP DP  RH WIND       PRES   REMARKS
K.C. INTL      CLEAR     42  29  59 NE3       30.42R
K.C. DOWNTOWN  CLEAR     46  30  53 E3        30.42R
LEES SUMMIT    CLEAR     44  31  60 SE3       30.42R
OLATHE - IXD   CLEAR     41  30  65 E6        30.41S
OLATHE - OJC   CLEAR     43  29  57 E6        30.40F
LAWRENCE       CLEAR     38  30  73 E3        30.41S

$$

MOZ001>008-011>017-020>025-030>033-038>040-044>046-053-054-200800-
...NORTHERN AND CENTRAL MISSOURI...

CITY           SKY/WX    TMP DP  RH WIND       PRES   REMARKS
ST. JOSEPH     CLEAR     37  29  72 CALM      30.43S
MOSBY          SUNNY     32  32 100 CALM      30.44R
WARRENSBURG    CLEAR     36  32  87 CALM      30.42S
WHITEMAN AFB   CLEAR     41  28  60 CALM      30.37F
CLINTON        CLOUDY    32  28  86 E6        30.41F WCI  26
SEDALIA        CLEAR     43  31  62 CALM      30.43S
WARSAW         NOT AVBL
CHILLICOTHE      N/A     34  27  75 NW3       30.45S
KIRKSVILLE     CLEAR     37  25  61 CALM      30.45R

$$

MOZ041-047>049-056>058-063>065-088>090-097-200800-
...EASTERN AND SOUTHERN MISSOURI...

CITY           SKY/WX    TMP DP  RH WIND       PRES   REMARKS
ST. LOUIS INTL CLEAR     44  29  55 NE6       30.44R
SPIRIT OF STL  CLEAR     33  31  92 CALM      30.43S
COLUMBIA       CLEAR     43  28  55 E7        30.42S
JEFFERSON CITY CLEAR     37  31  78 CALM      30.43S
ROLLA          CLEAR     37  28  70 CALM      30.41S
OSAGE BEACH    CLOUDY    37  29  72 CALM      30.42S
SPRINGFIELD    CLEAR     44  30  57 E9        30.38S
BRANSON        CLEAR     41  30  65 E9        30.40R
JOPLIN         CLEAR     41  32  70 E3        30.38S
WEST PLAINS    CLEAR     37  28  70 NE5       30.40S WCI  33

$$

IAZ060-094-KSZ022-034>040-054-083-096-NEZ052-066-093-200800-
...KANSAS...SOUTHEAST NEBRASKA AND IOWA...

CITY           SKY/WX    TMP DP  RH WIND       PRES   REMARKS
TOPEKA         CLEAR     41  32  70 CALM      30.40F
MANHATTAN      CLOUDY    36  26  67 CALM      30.38S
EMPORIA        CLOUDY    37  29  72 E8        30.37F WCI  31
CHANUTE        CLOUDY    43  31  62 E5        30.38S
WICHITA        PTCLDY    44  31  60 SE8       30.34R
OMAHA          CLOUDY    40  26  57 SW3       30.44R
LINCOLN        CLOUDY    34  26  72 CALM      30.40F
FALLS CITY     CLOUDY    39  26  59 SE3       30.41F
LAMONI         CLEAR     36  25  64 NE6       30.45R WCI  31
DES MOINES     CLOUDY    38  24  57 E6        30.47S WCI  33

$$





USA.gov is the U.S. government's official web portal to all federal, state and local government web resources and services.